Regional Weather Roundup
Issued by NWS

Home | Current Version | Previous Version | Graphics & Text | Print | Product List | Glossary On
Versions: 1 2 3 4 5 6 7 8 9 10 11 12 13 14 15 16 17 18 19 20 21 22 23 24 25 26 27 28 29 30 31 32 33 34 35 36 37 38 39 40 41 42 43 44 45 46 47 48 49 50
000
ASUS44 KMEG 070110
RWRTN
TENNESSEE HOURLY STATE WEATHER ROUNDUP
NATIONAL WEATHER SERVICE MEMPHIS TN
800 PM CDT MON JUL 06 2015

TNZ002-004-019-021-049-052-054-088>092-070200-
WEST TENNESSEE

CITY           SKY/WX    TMP DP  RH WIND       PRES   REMARKS
MEMPHIS INTL   MOCLDY    82  73  74 S7        30.01R
NWS MEMPHIS      N/A     82 N/A N/A MISG        N/A
JACKSON        CLEAR     81  72  74 S8        30.02R
DYERSBURG        N/A    N/A N/A N/A MISG        N/A
PARIS          CLEAR     79  73  83 SW6       30.01S
LEXINGTON      CLEAR     79  72  78 S7        30.02S
$$

TNZ008-025-027-028-033-062-065-066-070200-
NORTH MIDDLE TENNESSEE

CITY           SKY/WX    TMP DP  RH WIND       PRES   REMARKS
NASHVILLE      PTCLDY    81  72  74 S6        30.03S
CLARKSVILLE    PTCLDY    81  72  74 S9        30.01S
SMYRNA         CLEAR     82  72  72 S5        30.04F
COOKEVILLE     CLEAR     79  73  83 CALM      30.07S
CROSSVILLE     CLEAR     74  67  78 SW3       30.12F
$$

TNZ061-075-076-078-094-096-097-070200-
SOUTH MIDDLE TENNESSEE

CITY           SKY/WX    TMP DP  RH WIND       PRES   REMARKS
FAYETTEVILLE   PTCLDY    79  70  73 S3        30.07F
TULLAHOMA      PTCLDY    77  70  78 CALM      30.09S
WINCHESTER     CLEAR     79  72  78 S3        30.08F
MCMINNVILLE    CLEAR     79  72  78 CALM      30.08S
COLUMBIA       CLEAR     81  75  83 S5        30.03S
SHELBYVILLE    CLEAR     79  73  83 S3          N/A
$$

TNZ017-018-042-046-047-070200-
NORTHEAST TENNESSEE

CITY           SKY/WX    TMP DP  RH WIND       PRES   REMARKS
TRI CITIES     PTCLDY    76  65  68 S3        30.10F
ELIZABETHTON   CLEAR     68  64  88 CALM      30.12S
$$

TNZ012-013-036-069-073-074-070200-
CENTRAL EAST TENNESSEE

CITY           SKY/WX    TMP DP  RH WIND       PRES   REMARKS
KNOXVILLE      CLEAR     79  69  71 SW6       30.06F
OAK RIDGE      CLEAR     80  69  69 CALM      30.07F
GATLINBURG     CLEAR     75  66  73 CALM      30.07S
MORRISTOWN     CLEAR     77  68  73 S3        30.10S
$$

TNZ083-085-099-070200-
SOUTHEAST TENNESSEE

CITY           SKY/WX    TMP DP  RH WIND       PRES   REMARKS
CHATTANOOGA    PTCLDY    82  69  64 SW5       30.07F
$$

SKY/WX REPORTED AS FAIR MEANS FEW OR NO CLOUDS BELOW
12 THOUSAND FEET.




USA.gov is the U.S. government's official web portal to all federal, state and local government web resources and services.